Terminal Aerodrome Forecast
Issued by NWS Spokane, WA

Home | Current Version | Previous Version | Text Only | Print | Product List | Glossary On
Versions: 1 2 3 4 5 6 7 8 9 10 11 12 13 14 15 16 17 18 19
000
FTUS46 KOTX 192322
TAFGEG
TAF
KGEG 192322Z 2000/2024 21015G26KT P6SM VCSH SCT070 BKN120 BKN200
     FM200400 23020G28KT P6SM BKN090
     FM201100 22011KT P6SM FEW090
     FM202000 22010G15KT P6SM SCT050 BKN090=

USA.gov is the U.S. government's official web portal to all federal, state and local government web resources and services.